User: anonymous   Login
Location: Beuerbach
(48.1459°N, 10.9174°E)
Time: 10:13:06
(UTC+00:00)
Language:

Cosmos 2082 Rocket - Orbit

View from above orbital plane
View from above orbital plane
View from above satellite
View from above satellite

Ground track
Ground track

The orbit data is extracted from the following two-line orbital elements,

1 20625U 90046B   24197.94080569 -.00000122  00000-0 -38748-4 0  9999
2 20625  71.0002 121.5492 0012707 147.1279 213.0636 14.14848580763278
Epoch (UTC): 15 July 2024 22:34:45
Eccentricity: 0.0012707
inclination: 71.0002°
perigee height: 833 km
apogee height: 852 km
right ascension of ascending node: 121.5492°
argument of perigee: 147.1279°
revolutions per day: 14.14848580
mean anomaly at epoch: 213.0636°
orbit number at epoch: 76327

The dashed part of the orbit path shows where the satellite is in the earth's shadow,  

DLR